Terminal Aerodrome Forecast
Issued by NWS Mt. Holly, NJ

Home | Current Version | Previous Version | Text Only | Print | Product List | Glossary On
Versions: 1 2 3 4 5 6 7 8 9 10 11 12 13 14 15 16 17 18
000
FTUS41 KPHI 300500
TAFABE
TAF
KABE 300539Z 3006/0106 00000KT 4SM BR BKN150
      TEMPO 3008/3012 2SM BR
     FM301300 11005KT P6SM SCT050
      TEMPO 3018/3022 BKN050
     FM010000 06003KT P6SM BKN150
     FM010500 07007KT 6SM BR BKN020=

USA.gov is the U.S. government's official web portal to all federal, state and local government web resources and services.